Change the Weather History Date:

Wednesday, October 8, 2014

  Actual Average Record
Temperature  
Mean Temperature 68 °F 60 °F  
Max Temperature 78 °F 71 °F 90 °F (1959)
Min Temperature 57 °F 50 °F 30 °F (1988)
Degree Days  
Heating Degree Days 0 6  
Month to date heating degree days 25 38  
Since 1 July heating degree days 40 76  
Cooling Degree Days 3 1  
Month to date cooling degree days 6 11  
Year to date cooling degree days 1132 1182  
Growing Degree Days 17 (Base 50)    
Moisture  
Dew Point 55 °F    
Average Humidity 59    
Maximum Humidity 87    
Minimum Humidity 31    
Precipitation  
Precipitation T in 0.13 in 3.93 in (2005)
Month to date precipitation 0.21 0.92  
Year to date precipitation 34.41 34.32  
Sea Level Pressure  
Sea Level Pressure 29.92 in    
Wind  
Wind Speed 7 mph (SW)    
Max Wind Speed 22 mph    
Max Gust Speed 29 mph    
Visibility 10 miles    
Events Rain , Thunderstorm    
T = Trace of Precipitation, MM = Missing Value Source: NWS Daily Summary

Daily Weather History Graph

Daily Weather History Graph

Search for Another Location

Airport or City:

Trip Planner

Search our weather history database for the weather conditions in past years. The results will help you decide how hot, cold, wet, or windy it might be!

Date:

Astronomy

Oct. 08, 2014 Rise Set
Actual Time 7:03 AM EDT 6:33 PM EDT
Civil Twilight 6:37 AM EDT 7:00 PM EDT
Nautical Twilight 6:06 AM EDT 7:30 PM EDT
Astronomical Twilight 5:35 AM EDT 8:01 PM EDT
Moon 6:47 PM EDT (10/8) 7:07 AM EDT (10/8)
Length of Visible Light 12h 22m
Length of Day
11h 29m
Full, 100% of the Moon is Illuminated
Oct 8
Full
Oct 15
Last Quarter
Oct 23
New
Oct 30
First Quarter
Nov 6
Full

Hourly Weather History & Observations

Time (EDT) Temp. Dew Point Humidity Pressure Visibility Wind Dir Wind Speed Gust Speed Precip Events Conditions
12:51 AM 68.0 °F 64.4 °F 88% 29.94 in 10.0 mi SSW 17.3 mph 25.3 mph 0.02 in Rain , Thunderstorm Light Rain
12:54 AM 68.0 °F 64.0 °F 87% 29.94 in 10.0 mi SSW 13.8 mph 25.3 mph 0.02 in Rain , Thunderstorm Light Rain
1:05 AM 68.0 °F 64.0 °F 87% 29.94 in 10.0 mi SSW 16.1 mph 25.3 mph 0.00 in   Overcast
1:27 AM 68.0 °F 63.0 °F 84% 29.92 in 10.0 mi South 17.3 mph - 0.00 in   Scattered Clouds
1:54 AM 68.0 °F 64.0 °F 87% 29.92 in 10.0 mi SSW 17.3 mph 28.8 mph 0.00 in   Scattered Clouds
2:54 AM 66.9 °F 62.1 °F 84% 29.90 in 10.0 mi SSW 15.0 mph - N/A   Clear
3:54 AM 66.9 °F 63.0 °F 87% 29.87 in 10.0 mi SSW 16.1 mph - 0.00 in   Scattered Clouds
4:54 AM 66.9 °F 63.0 °F 87% 29.87 in 10.0 mi SSW 11.5 mph - N/A   Partly Cloudy
5:54 AM 66.0 °F 62.1 °F 87% 29.88 in 10.0 mi SSW 9.2 mph 18.4 mph N/A   Clear
6:54 AM 64.9 °F 61.0 °F 87% 29.89 in 10.0 mi South 6.9 mph - N/A   Clear
7:54 AM 64.9 °F 60.1 °F 84% 29.91 in 10.0 mi South 5.8 mph - N/A   Clear
8:54 AM 66.9 °F 60.1 °F 79% 29.93 in 10.0 mi Variable 6.9 mph - N/A   Clear
9:54 AM 70.0 °F 59.0 °F 68% 29.94 in 10.0 mi Variable 6.9 mph - N/A   Clear
10:54 AM 72.0 °F 54.0 °F 53% 29.94 in 10.0 mi WSW 8.1 mph 20.7 mph N/A   Clear
11:54 AM 73.9 °F 51.1 °F 45% 29.93 in 10.0 mi WSW 8.1 mph 18.4 mph N/A   Clear
12:54 PM 75.0 °F 46.0 °F 36% 29.92 in 10.0 mi WNW 9.2 mph 19.6 mph N/A   Clear
1:54 PM 77.0 °F 44.1 °F 31% 29.90 in 10.0 mi WSW 8.1 mph 18.4 mph N/A   Clear
2:54 PM 77.0 °F 46.0 °F 33% 29.89 in 10.0 mi West 8.1 mph 17.3 mph N/A   Partly Cloudy
3:54 PM 75.9 °F 48.0 °F 37% 29.88 in 10.0 mi WSW 10.4 mph 18.4 mph N/A   Partly Cloudy
4:54 PM 75.0 °F 46.9 °F 37% 29.89 in 10.0 mi Variable 6.9 mph - N/A   Partly Cloudy
5:54 PM 73.9 °F 48.0 °F 40% 29.90 in 10.0 mi Variable 6.9 mph - N/A   Clear
6:54 PM 71.1 °F 48.9 °F 45% 29.92 in 10.0 mi South 6.9 mph - N/A   Clear
7:54 PM 64.9 °F 51.1 °F 61% 29.93 in 10.0 mi Variable 3.5 mph - N/A   Clear
8:54 PM 62.1 °F 52.0 °F 70% 29.95 in 10.0 mi Calm Calm - N/A   Clear
9:54 PM 57.0 °F 51.1 °F 81% 29.97 in 10.0 mi Calm Calm - N/A   Partly Cloudy
10:54 PM 62.1 °F 52.0 °F 70% 29.99 in 10.0 mi Calm Calm - N/A   Partly Cloudy
11:54 PM 62.1 °F 48.9 °F 62% 30.01 in 10.0 mi Variable 3.5 mph - N/A   Scattered Clouds